Flag for U.S.A. Weather past 2 weeks in Ontario, California, U.S.A.

Now
82 °F

Sunny.


Feels Like: 80 °F
Forecast: 49 / 80 °F
Wind: 17 mph from Northeast

Location: Ontario International Airport

Current Time: Mar 6, 2015 at 2:46:37 PM

Latest Report: Mar 6, 2015 at 1:53 PM


Visibility: 10 mi

Pressure: 30.00 "Hg

Humidity: 7%

Dew point: 13 °F

Location of OntarioLocation

Historic Weather in Ontario — Graph

°F

Ontario temperature yesterday

Maximum temperature yesterday: 74 °F (at 2:53 PM)
Minimum temperature yesterday: 46 °F (at 4:53 AM)
Average temperature yesterday: 59 °F

Past Weeks' High & Low Weather Summary

 TemperatureHumidityPressure
High82 °F (Mar 6, 12:53 PM)97% (Feb 20, 3:53 AM)30.27 "Hg (Feb 20, 3:53 AM)
Low42 °F (Feb 24, 5:53 AM)7% (Mar 6, 1:53 PM)29.74 "Hg (Feb 27, 6:53 PM)
Average56 °F63%29.97 "Hg
* Reported Feb 19 1:53 PM — Mar 6 1:53 PM, Ontario, Weather by CustomWeather, © 2015

Note: Actual official high and low records may vary slightly from our data, if they occured in-between our weather recording intervals... More about our weather records

Advertising

Ontario weather history for previous 24 hours

 ConditionsComfort  
Time TempWeatherWind HumidityBarometerVisibility
1:53 PM
Fri, Mar 6
82 °FSunny.17 mph7%30.00 "Hg10 mi
12:53 PM82 °FSunny.22 mph8%30.03 "Hg10 mi
11:53 AM79 °FSunny.7 mph10%30.06 "Hg10 mi
10:53 AM77 °FSunny.6 mph12%30.09 "Hg10 mi
9:53 AM74 °FSunny.10 mph16%30.11 "Hg10 mi
8:53 AM69 °FSunny.9 mph18%30.13 "Hg10 mi
7:53 AM58 °FSunny.7 mph31%30.14 "Hg10 mi
6:53 AM51 °FSunny.3 mph33%30.14 "Hg10 mi
5:53 AM50 °FClear.3 mph33%30.14 "Hg10 mi
4:53 AM48 °FClear.3 mph37%30.12 "Hg10 mi
3:53 AM47 °FClear.9 mph44%30.12 "Hg10 mi
2:53 AM46 °FClear.No wind50%30.12 "Hg10 mi
1:53 AM51 °FClear.No wind39%30.13 "Hg10 mi
12:53 AM53 °FClear.No wind35%30.14 "Hg10 mi
11:53 PM
Thu, Mar 5
56 °FClear.6 mph32%30.14 "Hg10 mi
10:53 PM55 °FClear.7 mph39%30.15 "Hg10 mi
9:53 PM58 °FClear.7 mph38%30.16 "Hg10 mi
8:53 PM59 °FClear.6 mph33%30.16 "Hg10 mi
7:53 PM62 °FClear.No wind30%30.17 "Hg10 mi
6:53 PM63 °FClear.6 mph30%30.17 "Hg10 mi
5:53 PM66 °FClear.6 mph23%30.16 "Hg10 mi
4:53 PM71 °FSunny.7 mph19%30.15 "Hg10 mi
3:53 PM74 °FPassing clouds.6 mph14%30.15 "Hg10 mi
2:53 PM74 °FPassing clouds.6 mph15%30.16 "Hg10 mi
Weather by CustomWeather, © 2015

See weather overviewHow to use our weather pages